sat.trackr.live / text

‹ back to catalog

ONEWEB-0038

NORAD 45145 · 2020-008Q

PAYLOAD ACTIVE UNKNOWN

§ Identity

Operator
Country
UK
Launch date
2020-02-06
Launch site
TYMSC
Launch vehicle
Mass (kg)
RCS (m²)

Purposes: comms

External: N2YO · Heavens-Above · Gunter

§ Orbital elements

Epoch: 2026-09-12T18:10:55.169472Z

Period
109.80 min
Inclination
87.8978°
Eccentricity
0.0003039
Mean motion
13.11415908 rev/d
Perigee alt
1,215.4 km
Apogee alt
1,220.0 km
Semi-major
7,595.8 km
B*
1.4680e-3
RAAN
3.6759°
Arg perigee
72.9716°
Mean anomaly
287.1745°
Rev number
32,180

§ Raw data

ONEWEB-00381 45145U 20008Q   26255.75758298  .00000533  00000+0  14680-2 0  99912 45145  87.8978   3.6759 0003039  72.9716 287.1745 13.11415908321806

JSON: /api/v1/satellites/45145 · /tle

For live sub-satellite position, see the globe view (requires WebGL).

§ Visibility from observer

Set your observer location to see the next 7 days of passes ≥ 10°. The values pass through the URL so the page stays shareable.

No JS? Fill the form by hand. The geolocation button needs JavaScript.